Andilly, France

10:02 PM CET on November 23, 2017 (GMT +0100)
Andilly

Weather History for 07150 - October, 2013

Change the Weather History Date:

Wednesday, October 16, 2013

  Actual Average Record
Temperature  
Mean Temperature 48 °F -  
Max Temperature 57 °F 54 °F - ()
Min Temperature 39 °F 43 °F - ()
Degree Days  
Heating Degree Days 17    
Moisture  
Dew Point 48 °F    
Average Humidity 96    
Maximum Humidity 100    
Minimum Humidity 88    
Precipitation  
Precipitation 0.00 in 0.07 in - ()
Sea Level Pressure  
Sea Level Pressure 29.94 in    
Wind  
Wind Speed 3 mph ()    
Max Wind Speed 12 mph    
Max Gust Speed -    
Visibility 4.5 miles    
Events Fog , Rain    
T = Trace of Precipitation, MM = Missing Value Source: Averaged Metar Reports

Daily Weather History Graph

Daily Weather History Graph

Search for Another Location

Airport or City:

Trip Planner

Search our weather history database for the weather conditions in past years. The results will help you decide how hot, cold, wet, or windy it might be!

Date:

Astronomy

Oct. 16, 2013 Rise Set
Actual Time 8:12 AM CEST 6:58 PM CEST
Civil Twilight 7:40 AM CEST 7:30 PM CEST
Nautical Twilight 7:03 AM CEST 8:06 PM CEST
Astronomical Twilight 6:26 AM CEST 8:43 PM CEST
Moon 5:38 PM CEST (10/16) 5:11 AM CEST (10/16)
Length of Visible Light 11h 50m
Length of Day
10h 46m
Waxing Gibbous, 92% of the Moon is Illuminated
Oct 16
Waxing Gibbous
Oct 19
Full
Oct 27
Last Quarter
Nov 3
New
Nov 10
First Quarter

Hourly Weather History & Observations

Time (CEST) Temp. Windchill Dew Point Humidity Pressure Visibility Wind Dir Wind Speed Gust Speed Precip Events Conditions
12:00 AM 46.4 °F - 44.6 °F 93% 29.92 in 3.7 mi Calm Calm - N/A   Mist
12:30 AM 44.6 °F - 42.8 °F 93% 29.95 in 2.8 mi Calm Calm - N/A   Mist
1:00 AM 44.6 °F - 42.8 °F 93% 29.95 in 4.3 mi North 2.3 mph - N/A Fog Fog
1:30 AM 42.8 °F - 41.0 °F 93% 29.95 in 1.7 mi North 1.2 mph - N/A   Mist
2:00 AM 42.8 °F - 41.0 °F 93% 29.95 in 4.3 mi Calm Calm - N/A   Unknown
2:30 AM 42.8 °F - 41.0 °F 93% 29.95 in 4.3 mi Variable 1.2 mph - N/A   Unknown
3:00 AM 42.8 °F - 41.0 °F 93% 29.98 in 3.7 mi Calm Calm - N/A   Partly Cloudy
3:30 AM 42.8 °F - 41.0 °F 93% 29.98 in 3.7 mi Variable 2.3 mph - N/A   Partly Cloudy
4:00 AM 41.0 °F - 41.0 °F 100% 29.98 in 3.7 mi NNE 1.2 mph - N/A   Unknown
4:30 AM 41.0 °F - 41.0 °F 100% 29.98 in 2.2 mi NNE 1.2 mph - N/A Fog Fog
5:00 AM 39.2 °F - 39.2 °F 100% 29.98 in 5.0 mi Calm Calm - N/A   Partly Cloudy
5:30 AM 41.0 °F - 41.0 °F 100% 29.98 in 0.7 mi Calm Calm - N/A Fog Patches of Fog
6:00 AM 41.0 °F - 39.2 °F 93% 29.98 in 1.9 mi Calm Calm - N/A Fog Patches of Fog
6:30 AM 41.0 °F - 41.0 °F 100% 29.98 in - Calm Calm - N/A   Mist
7:00 AM 41.0 °F - 41.0 °F 100% 29.98 in 3.1 mi ENE 2.3 mph - N/A   Mist
7:30 AM 42.8 °F 41.1 °F 42.8 °F 100% 29.98 in 3.1 mi ENE 3.5 mph - N/A   Mist
8:00 AM 42.8 °F 41.1 °F 42.8 °F 100% 29.98 in 3.7 mi NE 3.5 mph - N/A   Unknown
8:30 AM 42.8 °F - 42.8 °F 100% 29.98 in 3.7 mi Variable 2.3 mph - N/A   Unknown
9:00 AM 46.4 °F 44.3 °F 46.4 °F 100% 29.98 in 4.3 mi East 4.6 mph - N/A   Unknown
9:30 AM 48.2 °F - 46.4 °F 93% 29.98 in 4.3 mi SE 4.6 mph - N/A   Unknown
10:00 AM 48.2 °F - 48.2 °F 100% 30.01 in 5.6 mi Variable 3.5 mph - N/A   Unknown
10:30 AM 48.2 °F - 48.2 °F 100% 29.98 in 5.0 mi ESE 4.6 mph - N/A   Unknown
11:00 AM 50.0 °F - 48.2 °F 94% 29.98 in 5.0 mi SE 5.8 mph - N/A   Unknown
11:30 AM 50.0 °F - 48.2 °F 94% 29.98 in 5.0 mi SE 5.8 mph - N/A   Unknown
12:00 PM 50.0 °F - 48.2 °F 94% 29.98 in 6.2 mi SSE 8.1 mph - N/A   Overcast
12:30 PM 51.8 °F - 50.0 °F 94% 29.95 in 6.2 mi SSE 9.2 mph - N/A   Unknown
1:00 PM 51.8 °F - 50.0 °F 94% 29.95 in 6.2 mi SSE 9.2 mph - N/A   Overcast
1:30 PM 53.6 °F - 50.0 °F 88% 29.92 in 5.6 mi SSE 6.9 mph - N/A Rain Light Rain
2:00 PM 53.6 °F - 51.8 °F 94% 29.92 in - SSE 10.4 mph - N/A Rain Rain
2:30 PM 53.6 °F - 51.8 °F 94% 29.89 in - SSE 9.2 mph - N/A Rain Rain
3:00 PM 55.4 °F - 51.8 °F 88% 29.86 in 5.6 mi SSE 11.5 mph - N/A Rain Light Rain
3:30 PM 55.4 °F - 53.6 °F 94% 29.86 in - SSE 11.5 mph - N/A Rain Rain
4:00 PM 55.4 °F - 55.4 °F 100% 29.83 in 1.3 mi SSE 11.5 mph - N/A Rain Rain
4:30 PM 55.4 °F - 55.4 °F 100% 29.86 in 3.7 mi South 6.9 mph - N/A Rain Light Rain
5:00 PM 57.2 °F - 55.4 °F 94% 29.86 in 6.2 mi SSW 5.8 mph - N/A   Overcast
5:30 PM 57.2 °F - 57.2 °F 100% 29.86 in 3.7 mi Variable 3.5 mph - N/A Rain Light Rain
6:00 PM 57.2 °F - 57.2 °F 100% 29.86 in 6.2 mi Variable 2.3 mph - N/A Rain Light Rain
6:30 PM 57.2 °F - 57.2 °F 100% 29.86 in 6.2 mi WSW 4.6 mph - N/A   Scattered Clouds
7:00 PM 57.2 °F - 57.2 °F 100% 29.86 in 5.6 mi SW 3.5 mph - N/A   Mostly Cloudy
7:30 PM 57.2 °F - 55.4 °F 94% 29.89 in 3.1 mi WSW 5.8 mph - N/A   Scattered Clouds
8:00 PM 57.2 °F - 55.4 °F 94% 29.89 in 6.2 mi West 4.6 mph - N/A   Partly Cloudy
8:30 PM 55.4 °F - 55.4 °F 100% 29.92 in 3.1 mi West 5.8 mph - N/A   Partly Cloudy
9:00 PM 55.4 °F - 53.6 °F 94% 29.92 in 6.2 mi WNW 8.1 mph - N/A   Partly Cloudy
9:30 PM 53.6 °F - 51.8 °F 94% 29.95 in 6.2 mi West 5.8 mph - N/A   Partly Cloudy
10:00 PM 53.6 °F - 51.8 °F 94% 29.95 in 6.2 mi West 9.2 mph - N/A   Unknown
10:30 PM 53.6 °F - 51.8 °F 94% 29.98 in 6.2 mi West 9.2 mph - N/A   Unknown
11:00 PM 51.8 °F - 50.0 °F 94% 29.98 in 6.2 mi West 6.9 mph - N/A   Unknown
11:30 PM 51.8 °F - 50.0 °F 94% 29.98 in 6.2 mi West 8.1 mph - N/A   Unknown